Time,TemperatureF,DewpointF,PressureIn,WindDirection,WindDirectionDegrees,WindSpeedMPH,WindSpeedGustMPH,Humidity,HourlyPrecipIn,Conditions,Clouds,dailyrainin,SoftwareType,DateUTC
2013-01-25 00:00:00,28.2,12.9,30.60,North,9,12.0,18.0,52,0.00,,---,0.00,VWS V14.00,2013-01-25 05:00:00,
2013-01-25 00:01:00,28.2,13.3,30.60,North,9,12.0,14.0,53,0.00,,---,0.00,VWS V14.00,2013-01-25 05:01:00,
2013-01-25 00:02:00,28.2,13.7,30.60,NNE,13,9.0,14.0,54,0.00,,---,0.00,VWS V14.00,2013-01-25 05:02:00,
2013-01-25 00:07:00,28.2,13.7,30.59,NNE,17,9.0,15.0,54,0.00,,---,0.00,VWS V14.00,2013-01-25 05:07:00,
2013-01-25 00:12:00,28.1,13.2,30.60,NNE,14,11.0,15.0,53,0.00,,---,0.00,VWS V14.00,2013-01-25 05:12:00,
2013-01-25 00:17:00,28.1,12.8,30.60,NNE,26,10.0,15.0,52,0.00,,---,0.00,VWS V14.00,2013-01-25 05:17:00,
2013-01-25 00:22:00,28.1,13.2,30.59,NNE,17,10.0,15.0,53,0.00,,---,0.00,VWS V14.00,2013-01-25 05:22:00,
2013-01-25 00:27:00,28.1,12.8,30.60,NNE,31,10.0,17.0,52,0.00,,---,0.00,VWS V14.00,2013-01-25 05:27:00,
2013-01-25 00:32:00,28.0,12.2,30.59,NNE,31,11.0,11.0,51,0.00,,---,0.00,VWS V14.00,2013-01-25 05:32:00,
2013-01-25 00:37:00,28.0,12.2,30.59,NNE,23,9.0,11.0,51,0.00,,---,0.00,VWS V14.00,2013-01-25 05:37:00,
2013-01-25 00:42:00,28.0,12.7,30.59,NNE,21,14.0,14.0,52,0.00,,---,0.00,VWS V14.00,2013-01-25 05:42:00,
2013-01-25 00:47:00,27.9,11.7,30.60,NNE,25,9.0,15.0,50,0.00,,---,0.00,VWS V14.00,2013-01-25 05:47:00,
2013-01-25 00:52:00,27.8,12.0,30.60,North,9,10.0,15.0,51,0.00,,---,0.00,VWS V14.00,2013-01-25 05:52:00,
2013-01-25 00:57:00,27.9,12.1,30.60,NNE,12,8.0,15.0,51,0.00,,---,0.00,VWS V14.00,2013-01-25 05:57:00,
2013-01-25 01:02:00,27.8,12.0,30.60,NNE,30,5.0,10.0,51,0.00,,---,0.00,VWS V14.00,2013-01-25 06:02:00,
2013-01-25 01:07:00,27.8,11.1,30.60,North,11,7.0,12.0,49,0.00,,---,0.00,VWS V14.00,2013-01-25 06:07:00,
2013-01-25 01:12:00,27.7,11.9,30.60,NNE,25,8.0,12.0,51,0.00,,---,0.00,VWS V14.00,2013-01-25 06:12:00,
2013-01-25 01:17:00,27.7,12.8,30.60,NNE,19,8.0,12.0,53,0.00,,---,0.00,VWS V14.00,2013-01-25 06:17:00,
2013-01-25 01:22:00,27.7,11.9,30.60,NNE,31,6.0,12.0,51,0.00,,---,0.00,VWS V14.00,2013-01-25 06:22:00,
2013-01-25 01:27:00,27.7,11.9,30.59,NNE,16,6.0,12.0,51,0.00,,---,0.00,VWS V14.00,2013-01-25 06:27:00,
2013-01-25 01:32:00,27.6,12.3,30.60,NNE,32,5.0,9.0,52,0.00,,---,0.00,VWS V14.00,2013-01-25 06:32:00,
2013-01-25 01:37:00,27.6,12.3,30.59,NNE,26,5.0,9.0,52,0.00,,---,0.00,VWS V14.00,2013-01-25 06:37:00,
2013-01-25 01:42:00,27.6,12.3,30.60,NNE,25,5.0,9.0,52,0.00,,---,0.00,VWS V14.00,2013-01-25 06:42:00,
2013-01-25 01:47:00,27.6,12.7,30.60,North,11,6.0,9.0,53,0.00,,---,0.00,VWS V14.00,2013-01-25 06:47:00,
2013-01-25 01:52:00,27.6,13.1,30.60,North,5,7.0,9.0,54,0.00,,---,0.00,VWS V14.00,2013-01-25 06:52:00,
2013-01-25 01:57:00,27.6,13.1,30.60,NNE,22,4.0,9.0,54,0.00,,---,0.00,VWS V14.00,2013-01-25 06:57:00,
2013-01-25 02:02:00,27.6,13.1,30.60,NNE,27,6.0,8.0,54,0.00,,---,0.00,VWS V14.00,2013-01-25 07:02:00,
2013-01-25 02:07:00,27.6,14.0,30.60,NE,34,5.0,8.0,56,0.00,,---,0.00,VWS V14.00,2013-01-25 07:07:00,
2013-01-25 02:12:00,27.6,14.0,30.60,North,11,5.0,8.0,56,0.00,,---,0.00,VWS V14.00,2013-01-25 07:12:00,
2013-01-25 02:17:00,27.6,13.6,30.61,NE,35,4.0,8.0,55,0.00,,---,0.00,VWS V14.00,2013-01-25 07:17:00,
2013-01-25 02:22:00,27.5,13.5,30.60,NNE,13,5.0,8.0,55,0.00,,---,0.00,VWS V14.00,2013-01-25 07:22:00,
2013-01-25 02:27:00,27.5,14.3,30.60,NNE,12,5.0,8.0,57,0.00,,---,0.00,VWS V14.00,2013-01-25 07:27:00,
2013-01-25 02:32:00,27.6,14.0,30.60,North,11,3.0,6.0,56,0.00,,---,0.00,VWS V14.00,2013-01-25 07:32:00,
2013-01-25 02:37:00,27.5,13.9,30.60,NNE,13,5.0,7.0,56,0.00,,---,0.00,VWS V14.00,2013-01-25 07:37:00,
2013-01-25 02:42:00,27.5,14.3,30.60,North,1,1.0,7.0,57,0.00,,---,0.00,VWS V14.00,2013-01-25 07:42:00,
2013-01-25 02:47:00,27.4,14.2,30.60,North,0,4.0,7.0,57,0.00,,---,0.00,VWS V14.00,2013-01-25 07:47:00,
2013-01-25 02:52:00,27.3,14.1,30.60,North,359,5.0,7.0,57,0.00,,---,0.00,VWS V14.00,2013-01-25 07:52:00,
2013-01-25 02:57:00,27.3,14.5,30.61,North,358,3.0,7.0,58,0.00,,---,0.00,VWS V14.00,2013-01-25 07:57:00,
2013-01-25 03:02:00,27.4,14.2,30.61,North,0,4.0,7.0,57,0.00,,---,0.00,VWS V14.00,2013-01-25 08:02:00,
2013-01-25 03:07:00,27.4,14.6,30.60,North,0,8.0,8.0,58,0.00,,---,0.00,VWS V14.00,2013-01-25 08:07:00,
2013-01-25 03:12:00,27.4,15.0,30.60,North,0,6.0,8.0,59,0.00,,---,0.00,VWS V14.00,2013-01-25 08:12:00,
2013-01-25 03:17:00,27.4,14.6,30.61,NNE,14,6.0,8.0,58,0.00,,---,0.00,VWS V14.00,2013-01-25 08:17:00,
2013-01-25 03:22:00,27.4,14.6,30.61,North,7,6.0,9.0,58,0.00,,---,0.00,VWS V14.00,2013-01-25 08:22:00,
2013-01-25 03:27:00,27.4,15.0,30.60,North,5,6.0,9.0,59,0.00,,---,0.00,VWS V14.00,2013-01-25 08:27:00,
2013-01-25 03:32:00,27.4,14.6,30.60,North,8,9.0,9.0,58,0.00,,---,0.00,VWS V14.00,2013-01-25 08:32:00,
2013-01-25 03:37:00,27.4,15.0,30.60,North,3,8.0,9.0,59,0.00,,---,0.00,VWS V14.00,2013-01-25 08:37:00,
2013-01-25 03:42:00,27.4,15.0,30.60,North,6,7.0,10.0,59,0.00,,---,0.00,VWS V14.00,2013-01-25 08:42:00,
2013-01-25 03:47:00,27.4,14.6,30.60,North,10,7.0,10.0,58,0.00,,---,0.00,VWS V14.00,2013-01-25 08:47:00,
2013-01-25 03:52:00,27.4,15.0,30.59,NNE,22,9.0,10.0,59,0.00,,---,0.00,VWS V14.00,2013-01-25 08:52:00,
2013-01-25 03:57:00,27.4,15.0,30.60,NNE,16,7.0,10.0,59,0.00,,---,0.00,VWS V14.00,2013-01-25 08:57:00,
2013-01-25 04:02:00,27.4,15.0,30.60,North,7,7.0,8.0,59,0.00,,---,0.00,VWS V14.00,2013-01-25 09:02:00,
2013-01-25 04:07:00,27.4,15.4,30.60,NNE,13,7.0,10.0,60,0.00,,---,0.00,VWS V14.00,2013-01-25 09:07:00,
2013-01-25 04:12:00,27.4,15.7,30.60,North,3,6.0,10.0,61,0.00,,---,0.00,VWS V14.00,2013-01-25 09:12:00,
2013-01-25 04:17:00,27.4,15.7,30.59,North,349,6.0,10.0,61,0.00,,---,0.00,VWS V14.00,2013-01-25 09:17:00,
2013-01-25 04:22:00,27.4,15.0,30.58,North,5,6.0,10.0,59,0.00,,---,0.00,VWS V14.00,2013-01-25 09:22:00,
2013-01-25 04:27:00,27.4,15.7,30.59,NNE,15,7.0,10.0,61,0.00,,---,0.00,VWS V14.00,2013-01-25 09:27:00,
2013-01-25 04:32:00,27.4,15.4,30.59,NNE,12,7.0,9.0,60,0.00,,---,0.00,VWS V14.00,2013-01-25 09:32:00,
2013-01-25 04:37:00,27.4,15.7,30.59,North,356,10.0,10.0,61,0.00,,---,0.00,VWS V14.00,2013-01-25 09:37:00,
2013-01-25 04:42:00,27.4,15.7,30.59,North,2,10.0,11.0,61,0.00,,---,0.00,VWS V14.00,2013-01-25 09:42:00,
2013-01-25 04:47:00,27.4,16.5,30.59,North,0,6.0,11.0,63,0.00,,---,0.00,VWS V14.00,2013-01-25 09:47:00,
2013-01-25 04:52:00,27.5,16.2,30.59,NNE,16,5.0,11.0,62,0.00,,---,0.00,VWS V14.00,2013-01-25 09:52:00,
2013-01-25 04:57:00,27.4,16.1,30.59,North,2,8.0,11.0,62,0.00,,---,0.00,VWS V14.00,2013-01-25 09:57:00,
2013-01-25 05:02:00,27.4,16.1,30.59,North,5,8.0,9.0,62,0.00,,---,0.00,VWS V14.00,2013-01-25 10:02:00,
2013-01-25 05:07:00,27.4,16.1,30.59,North,8,7.0,9.0,62,0.00,,---,0.00,VWS V14.00,2013-01-25 10:07:00,
2013-01-25 05:12:00,27.3,15.6,30.58,NNE,12,7.0,11.0,61,0.00,,---,0.00,VWS V14.00,2013-01-25 10:12:00,
2013-01-25 05:17:00,27.3,16.0,30.57,NNE,21,8.0,11.0,62,0.00,,---,0.00,VWS V14.00,2013-01-25 10:17:00,
2013-01-25 05:22:00,27.3,15.6,30.57,NNE,19,6.0,11.0,61,0.00,,---,0.00,VWS V14.00,2013-01-25 10:22:00,
2013-01-25 05:27:00,27.2,16.3,30.57,NNE,13,9.0,11.0,63,0.00,,---,0.00,VWS V14.00,2013-01-25 10:27:00,
2013-01-25 05:32:00,27.2,15.6,30.57,North,6,9.0,11.0,61,0.00,,---,0.00,VWS V14.00,2013-01-25 10:32:00,
2013-01-25 05:37:00,27.2,15.9,30.57,North,5,6.0,11.0,62,0.00,,---,0.00,VWS V14.00,2013-01-25 10:37:00,
2013-01-25 05:42:00,27.2,16.3,30.58,North,5,7.0,11.0,63,0.00,,---,0.00,VWS V14.00,2013-01-25 10:42:00,
2013-01-25 05:47:00,27.3,16.4,30.58,North,7,8.0,12.0,63,0.00,,---,0.00,VWS V14.00,2013-01-25 10:47:00,
2013-01-25 05:52:00,27.4,17.2,30.58,North,10,6.0,12.0,65,0.00,,---,0.00,VWS V14.00,2013-01-25 10:52:00,
2013-01-25 05:57:00,27.4,16.8,30.59,North,359,7.0,12.0,64,0.00,,---,0.00,VWS V14.00,2013-01-25 10:57:00,
2013-01-25 06:02:00,27.6,17.7,30.58,North,1,6.0,10.0,66,0.00,,---,0.00,VWS V14.00,2013-01-25 11:02:00,
2013-01-25 06:07:00,27.6,17.4,30.58,North,0,7.0,11.0,65,0.00,,---,0.00,VWS V14.00,2013-01-25 11:07:00,
2013-01-25 06:12:00,27.6,17.4,30.58,North,5,7.0,11.0,65,0.00,,---,0.00,VWS V14.00,2013-01-25 11:12:00,
2013-01-25 06:17:00,27.5,17.3,30.58,North,358,7.0,11.0,65,0.00,,---,0.00,VWS V14.00,2013-01-25 11:17:00,
2013-01-25 06:22:00,27.6,17.4,30.58,North,359,6.0,11.0,65,0.00,,---,0.00,VWS V14.00,2013-01-25 11:22:00,
2013-01-25 06:27:00,27.6,18.1,30.58,North,0,6.0,11.0,67,0.00,,---,0.00,VWS V14.00,2013-01-25 11:27:00,
2013-01-25 06:32:00,27.6,17.7,30.59,North,355,8.0,10.0,66,0.00,,---,0.00,VWS V14.00,2013-01-25 11:32:00,
2013-01-25 06:37:00,27.6,17.7,30.58,North,3,7.0,11.0,66,0.00,,---,0.00,VWS V14.00,2013-01-25 11:37:00,
2013-01-25 06:42:00,27.7,17.8,30.58,North,3,8.0,12.0,66,0.00,,---,0.00,VWS V14.00,2013-01-25 11:42:00,
2013-01-25 06:47:00,27.6,17.4,30.58,North,3,8.0,12.0,65,0.00,,---,0.00,VWS V14.00,2013-01-25 11:47:00,
2013-01-25 06:52:00,27.7,17.8,30.58,North,2,9.0,12.0,66,0.00,,---,0.00,VWS V14.00,2013-01-25 11:52:00,
2013-01-25 06:57:00,27.8,18.3,30.58,NNE,16,8.0,12.0,67,0.00,,---,0.00,VWS V14.00,2013-01-25 11:57:00,
2013-01-25 07:02:00,27.9,18.4,30.58,North,2,7.0,10.0,67,0.00,,---,0.00,VWS V14.00,2013-01-25 12:02:00,
2013-01-25 07:07:00,27.9,19.1,30.58,North,9,10.0,10.0,69,0.00,,---,0.00,VWS V14.00,2013-01-25 12:07:00,
2013-01-25 07:12:00,28.0,19.2,30.58,North,357,6.0,11.0,69,0.00,,---,0.00,VWS V14.00,2013-01-25 12:12:00,
2013-01-25 07:17:00,28.0,19.2,30.58,North,352,7.0,11.0,69,0.00,,---,0.00,VWS V14.00,2013-01-25 12:17:00,
2013-01-25 07:22:00,27.9,18.7,30.58,North,6,5.0,11.0,68,0.00,,---,0.00,VWS V14.00,2013-01-25 12:22:00,
2013-01-25 07:27:00,27.8,18.6,30.58,North,349,11.0,11.0,68,0.00,,---,0.00,VWS V14.00,2013-01-25 12:27:00,
2013-01-25 07:32:00,27.9,18.7,30.58,North,7,7.0,9.0,68,0.00,,---,0.00,VWS V14.00,2013-01-25 12:32:00,
2013-01-25 07:37:00,28.0,19.5,30.58,North,353,6.0,10.0,70,0.00,,---,0.00,VWS V14.00,2013-01-25 12:37:00,
2013-01-25 07:42:00,28.0,19.5,30.58,North,0,6.0,10.0,70,0.00,,---,0.00,VWS V14.00,2013-01-25 12:42:00,
2013-01-25 07:47:00,28.1,18.9,30.59,North,2,9.0,10.0,68,0.00,,---,0.00,VWS V14.00,2013-01-25 12:47:00,
2013-01-25 07:52:00,28.1,18.9,30.58,North,0,6.0,10.0,68,0.00,,---,0.00,VWS V14.00,2013-01-25 12:52:00,
2013-01-25 07:57:00,28.1,18.6,30.57,North,5,7.0,10.0,67,0.00,,---,0.00,VWS V14.00,2013-01-25 12:57:00,
2013-01-25 08:02:00,28.1,18.6,30.57,North,8,7.0,11.0,67,0.00,,---,0.00,VWS V14.00,2013-01-25 13:02:00,
2013-01-25 08:07:00,28.2,19.0,30.57,North,0,10.0,14.0,68,0.00,,---,0.00,VWS V14.00,2013-01-25 13:07:00,
2013-01-25 08:12:00,28.3,19.1,30.56,NNE,18,6.0,14.0,68,0.00,,---,0.00,VWS V14.00,2013-01-25 13:12:00,
2013-01-25 08:17:00,28.4,19.5,30.56,NNE,21,7.0,14.0,69,0.00,,---,0.00,VWS V14.00,2013-01-25 13:17:00,
2013-01-25 08:22:00,28.4,18.9,30.56,NNE,28,6.0,14.0,67,0.00,,---,0.00,VWS V14.00,2013-01-25 13:22:00,
2013-01-25 08:27:00,28.5,19.3,30.56,NNE,18,8.0,14.0,68,0.00,,---,0.00,VWS V14.00,2013-01-25 13:27:00,
2013-01-25 08:32:00,28.6,19.4,30.55,North,11,10.0,12.0,68,0.00,,---,0.00,VWS V14.00,2013-01-25 13:32:00,
2013-01-25 08:37:00,28.7,19.5,30.57,North,7,10.0,12.0,68,0.00,,---,0.00,VWS V14.00,2013-01-25 13:37:00,
2013-01-25 08:42:00,28.7,19.5,30.57,North,359,8.0,12.0,68,0.00,,---,0.00,VWS V14.00,2013-01-25 13:42:00,
2013-01-25 08:47:00,28.9,19.7,30.57,NNE,17,5.0,12.0,68,0.00,,---,0.00,VWS V14.00,2013-01-25 13:47:00,
2013-01-25 08:52:00,29.0,20.1,30.57,North,10,8.0,12.0,69,0.00,,---,0.00,VWS V14.00,2013-01-25 13:52:00,
2013-01-25 08:57:00,29.0,19.8,30.56,NNW,347,11.0,14.0,68,0.00,,---,0.00,VWS V14.00,2013-01-25 13:57:00,
2013-01-25 09:02:00,29.1,19.9,30.57,NNE,26,9.0,12.0,68,0.00,,---,0.00,VWS V14.00,2013-01-25 14:02:00,
2013-01-25 09:07:00,29.2,20.3,30.57,NNE,25,6.0,13.0,69,0.00,,---,0.00,VWS V14.00,2013-01-25 14:07:00,
2013-01-25 09:12:00,29.2,19.6,30.56,NNE,21,11.0,13.0,67,0.00,,---,0.00,VWS V14.00,2013-01-25 14:12:00,
2013-01-25 09:17:00,29.2,19.6,30.56,North,5,7.0,13.0,67,0.00,,---,0.00,VWS V14.00,2013-01-25 14:17:00,
2013-01-25 09:22:00,29.3,19.7,30.56,North,10,8.0,13.0,67,0.00,,---,0.00,VWS V14.00,2013-01-25 14:22:00,
2013-01-25 09:27:00,29.5,20.6,30.55,NNE,22,9.0,13.0,69,0.00,,---,0.00,VWS V14.00,2013-01-25 14:27:00,
2013-01-25 09:32:00,29.7,20.8,30.55,NE,48,3.0,11.0,69,0.00,,---,0.00,VWS V14.00,2013-01-25 14:32:00,
2013-01-25 09:37:00,29.9,20.6,30.55,NE,46,12.0,12.0,68,0.00,,---,0.00,VWS V14.00,2013-01-25 14:37:00,
2013-01-25 09:42:00,30.1,20.8,30.55,NE,49,9.0,12.0,68,0.00,,---,0.00,VWS V14.00,2013-01-25 14:42:00,
2013-01-25 09:47:00,30.3,20.7,30.54,NNE,30,12.0,12.0,67,0.00,,---,0.00,VWS V14.00,2013-01-25 14:47:00,
2013-01-25 09:52:00,30.5,21.6,30.55,NE,38,6.0,12.0,69,0.00,,---,0.00,VWS V14.00,2013-01-25 14:52:00,
2013-01-25 09:57:00,30.7,21.4,30.53,NE,36,8.0,13.0,68,0.00,,---,0.00,VWS V14.00,2013-01-25 14:57:00,
2013-01-25 10:02:00,31.0,22.4,30.54,NE,36,10.0,13.0,70,0.00,,---,0.00,VWS V14.00,2013-01-25 15:02:00,
2013-01-25 10:07:00,31.2,22.2,30.54,NE,38,4.0,13.0,69,0.00,,---,0.00,VWS V14.00,2013-01-25 15:07:00,
2013-01-25 10:12:00,31.3,22.7,30.54,NE,37,6.0,13.0,70,0.00,,---,0.00,VWS V14.00,2013-01-25 15:12:00,
2013-01-25 10:17:00,31.6,23.0,30.54,NE,39,7.0,13.0,70,0.00,,---,0.00,VWS V14.00,2013-01-25 15:17:00,
2013-01-25 10:22:00,31.8,22.8,30.53,NE,51,1.0,13.0,69,0.00,,---,0.00,VWS V14.00,2013-01-25 15:22:00,
2013-01-25 10:27:00,32.0,23.0,30.52,NE,43,8.0,13.0,69,0.00,,---,0.00,VWS V14.00,2013-01-25 15:27:00,
2013-01-25 10:32:00,32.3,23.3,30.53,NE,40,4.0,8.0,69,0.00,,---,0.00,VWS V14.00,2013-01-25 15:32:00,
2013-01-25 10:37:00,32.5,23.8,30.53,ENE,63,4.0,9.0,70,0.00,,---,0.00,VWS V14.00,2013-01-25 15:37:00,
2013-01-25 10:42:00,32.8,23.8,30.52,NE,40,4.0,9.0,69,0.00,,---,0.00,VWS V14.00,2013-01-25 15:42:00,
2013-01-25 10:47:00,33.1,23.7,30.52,NNE,26,5.0,9.0,68,0.00,,---,0.00,VWS V14.00,2013-01-25 15:47:00,
2013-01-25 10:52:00,33.2,23.8,30.51,NNE,31,4.0,9.0,68,0.00,,---,0.00,VWS V14.00,2013-01-25 15:52:00,
2013-01-25 10:57:00,33.5,24.4,30.50,ENE,69,3.0,9.0,69,0.00,,---,0.00,VWS V14.00,2013-01-25 15:57:00,
2013-01-25 11:02:00,33.7,24.6,30.51,NE,54,4.0,4.0,69,0.00,,---,0.00,VWS V14.00,2013-01-25 16:02:00,
2013-01-25 11:07:00,33.9,24.8,30.50,ENE,68,2.0,6.0,69,0.00,,---,0.00,VWS V14.00,2013-01-25 16:07:00,
2013-01-25 11:12:00,34.2,25.1,30.50,NE,54,1.0,7.0,69,0.00,,---,0.00,VWS V14.00,2013-01-25 16:12:00,
2013-01-25 11:17:00,34.5,25.4,30.50,NNE,30,5.0,7.0,69,0.00,,---,0.00,VWS V14.00,2013-01-25 16:17:00,
2013-01-25 11:22:00,34.8,26.0,30.50,NE,40,0.0,7.0,70,0.00,,---,0.00,VWS V14.00,2013-01-25 16:22:00,
2013-01-25 11:27:00,35.0,25.9,30.49,NNE,33,2.0,9.0,69,0.00,,---,0.00,VWS V14.00,2013-01-25 16:27:00,
2013-01-25 11:32:00,35.2,26.4,30.48,NE,53,1.0,3.0,70,0.00,,---,0.00,VWS V14.00,2013-01-25 16:32:00,
2013-01-25 11:37:00,35.5,26.4,30.49,NNE,29,3.0,6.0,69,0.00,,---,0.00,VWS V14.00,2013-01-25 16:37:00,
2013-01-25 11:42:00,35.7,26.5,30.49,NE,54,2.0,7.0,69,0.00,,---,0.00,VWS V14.00,2013-01-25 16:42:00,
2013-01-25 11:47:00,36.0,26.8,30.48,NNE,32,5.0,9.0,69,0.00,,---,0.00,VWS V14.00,2013-01-25 16:47:00,
2013-01-25 11:52:00,36.2,27.0,30.47,ENE,57,6.0,9.0,69,0.00,,---,0.00,VWS V14.00,2013-01-25 16:52:00,
2013-01-25 11:57:00,36.5,27.3,30.46,NE,45,2.0,10.0,69,0.00,,---,0.00,VWS V14.00,2013-01-25 16:57:00,
2013-01-25 12:02:00,36.7,27.5,30.46,ENE,77,2.0,6.0,69,0.00,,---,0.00,VWS V14.00,2013-01-25 17:02:00,
2013-01-25 12:07:00,36.9,27.3,30.46,NE,47,5.0,9.0,68,0.00,,---,0.00,VWS V14.00,2013-01-25 17:07:00,
2013-01-25 12:12:00,37.1,27.9,30.45,NE,46,8.0,9.0,69,0.00,,---,0.00,VWS V14.00,2013-01-25 17:12:00,
2013-01-25 12:17:00,37.4,28.2,30.43,ENE,65,1.0,9.0,69,0.00,,---,0.00,VWS V14.00,2013-01-25 17:17:00,
2013-01-25 12:22:00,37.6,28.0,30.43,ENE,62,1.0,9.0,68,0.00,,---,0.00,VWS V14.00,2013-01-25 17:22:00,
2013-01-25 12:27:00,37.7,28.5,30.43,ENE,71,3.0,9.0,69,0.00,,---,0.00,VWS V14.00,2013-01-25 17:27:00,
2013-01-25 12:32:00,37.7,28.1,30.42,NE,43,3.0,3.0,68,0.00,,---,0.00,VWS V14.00,2013-01-25 17:32:00,
2013-01-25 12:37:00,37.8,28.6,30.42,NNE,15,5.0,6.0,69,0.00,,---,0.00,VWS V14.00,2013-01-25 17:37:00,
2013-01-25 12:42:00,37.9,28.6,30.41,NNE,13,2.0,6.0,69,0.00,,---,0.00,VWS V14.00,2013-01-25 17:42:00,
2013-01-25 12:47:00,37.8,28.2,30.41,NE,45,7.0,8.0,68,0.00,,---,0.00,VWS V14.00,2013-01-25 17:47:00,
2013-01-25 12:52:00,37.7,27.8,30.39,NE,53,6.0,8.0,67,0.00,,---,0.00,VWS V14.00,2013-01-25 17:52:00,
2013-01-25 12:57:00,37.7,28.1,30.40,NE,40,5.0,8.0,68,0.00,,---,0.00,VWS V14.00,2013-01-25 17:57:00,
2013-01-25 13:02:00,37.7,28.1,30.39,NE,48,1.0,5.0,68,0.00,,---,0.00,VWS V14.00,2013-01-25 18:02:00,
2013-01-25 13:07:00,37.7,28.5,30.40,NNE,20,6.0,7.0,69,0.00,,---,0.00,VWS V14.00,2013-01-25 18:07:00,
2013-01-25 13:12:00,37.7,28.5,30.39,NNE,28,4.0,7.0,69,0.00,,---,0.00,VWS V14.00,2013-01-25 18:12:00,
2013-01-25 13:17:00,37.7,28.5,30.39,NNE,33,5.0,7.0,69,0.00,,---,0.00,VWS V14.00,2013-01-25 18:17:00,
2013-01-25 13:22:00,37.7,28.5,30.38,ENE,75,1.0,7.0,69,0.00,,---,0.00,VWS V14.00,2013-01-25 18:22:00,
2013-01-25 13:27:00,37.7,28.5,30.38,ENE,68,1.0,7.0,69,0.00,,---,0.00,VWS V14.00,2013-01-25 18:27:00,
2013-01-25 13:32:00,37.7,28.8,30.39,NE,39,0.0,3.0,70,0.00,,---,0.00,VWS V14.00,2013-01-25 18:32:00,
2013-01-25 13:37:00,37.7,28.8,30.38,NE,40,0.0,3.0,70,0.00,,---,0.00,VWS V14.00,2013-01-25 18:37:00,
2013-01-25 13:42:00,37.8,28.9,30.37,NE,40,1.0,3.0,70,0.00,,---,0.00,VWS V14.00,2013-01-25 18:42:00,
2013-01-25 13:47:00,37.7,28.8,30.37,NE,45,1.0,4.0,70,0.00,,---,0.00,VWS V14.00,2013-01-25 18:47:00,
2013-01-25 13:52:00,37.8,28.9,30.36,NE,50,3.0,6.0,70,0.00,,---,0.00,VWS V14.00,2013-01-25 18:52:00,
2013-01-25 13:57:00,37.7,28.8,30.35,NE,46,1.0,6.0,70,0.00,,---,0.00,VWS V14.00,2013-01-25 18:57:00,
2013-01-25 14:02:00,37.7,28.8,30.35,NE,50,0.0,2.0,70,0.00,,---,0.00,VWS V14.00,2013-01-25 19:02:00,
2013-01-25 14:07:00,37.7,29.2,30.35,NE,42,0.0,7.0,71,0.00,,---,0.00,VWS V14.00,2013-01-25 19:07:00,
2013-01-25 14:12:00,37.7,28.8,30.33,ENE,71,4.0,7.0,70,0.00,,---,0.00,VWS V14.00,2013-01-25 19:12:00,
2013-01-25 14:17:00,37.7,29.2,30.31,ENE,67,2.0,7.0,71,0.00,,---,0.00,VWS V14.00,2013-01-25 19:17:00,
2013-01-25 14:22:00,37.6,29.1,30.31,ENE,65,0.0,8.0,71,0.00,,---,0.00,VWS V14.00,2013-01-25 19:22:00,
2013-01-25 14:27:00,37.7,29.2,30.31,ENE,67,4.0,8.0,71,0.00,,---,0.00,VWS V14.00,2013-01-25 19:27:00,
2013-01-25 14:32:00,37.7,28.8,30.31,ENE,77,1.0,6.0,70,0.00,,---,0.00,VWS V14.00,2013-01-25 19:32:00,
2013-01-25 14:37:00,37.7,29.5,30.31,East,85,1.0,6.0,72,0.00,,---,0.00,VWS V14.00,2013-01-25 19:37:00,
2013-01-25 14:42:00,37.7,29.8,30.30,ENE,67,1.0,6.0,73,0.00,,---,0.00,VWS V14.00,2013-01-25 19:42:00,
2013-01-25 14:47:00,37.7,29.2,30.30,ENE,77,1.0,6.0,71,0.00,,---,0.00,VWS V14.00,2013-01-25 19:47:00,
2013-01-25 14:52:00,37.7,29.2,30.29,ENE,73,2.0,6.0,71,0.00,,---,0.00,VWS V14.00,2013-01-25 19:52:00,
2013-01-25 14:57:00,37.7,29.2,30.29,NE,46,6.0,6.0,71,0.00,,---,0.00,VWS V14.00,2013-01-25 19:57:00,
2013-01-25 15:02:00,37.6,29.4,30.31,NNE,28,7.0,8.0,72,0.00,,---,0.00,VWS V14.00,2013-01-25 20:02:00,
2013-01-25 15:07:00,37.5,29.6,30.32,NNE,31,4.0,10.0,73,0.00,,---,0.00,VWS V14.00,2013-01-25 20:07:00,
2013-01-25 15:12:00,37.4,29.5,30.30,ENE,65,0.0,10.0,73,0.00,,---,0.00,VWS V14.00,2013-01-25 20:12:00,
2013-01-25 15:17:00,37.4,29.2,30.29,NE,54,2.0,10.0,72,0.00,,---,0.00,VWS V14.00,2013-01-25 20:17:00,
2013-01-25 15:22:00,37.4,29.2,30.29,NE,49,0.0,10.0,72,0.00,,---,0.00,VWS V14.00,2013-01-25 20:22:00,
2013-01-25 15:27:00,37.3,29.1,30.29,NE,46,5.0,10.0,72,0.00,,---,0.00,VWS V14.00,2013-01-25 20:27:00,
2013-01-25 15:32:00,37.2,29.0,30.28,NE,47,2.0,2.0,72,0.00,,---,0.00,VWS V14.00,2013-01-25 20:32:00,
2013-01-25 15:37:00,37.1,28.9,30.28,NE,54,5.0,7.0,72,0.00,,---,0.00,VWS V14.00,2013-01-25 20:37:00,
2013-01-25 15:42:00,37.1,29.3,30.28,NE,34,6.0,7.0,73,0.00,,---,0.00,VWS V14.00,2013-01-25 20:42:00,
2013-01-25 15:47:00,37.1,29.6,30.29,NNE,31,5.0,7.0,74,0.00,,---,0.00,VWS V14.00,2013-01-25 20:47:00,
2013-01-25 15:52:00,37.0,29.8,30.28,NE,35,6.0,7.0,75,0.00,,---,0.00,VWS V14.00,2013-01-25 20:52:00,
2013-01-25 15:57:00,37.0,29.5,30.29,NNE,33,3.0,7.0,74,0.00,,---,0.00,VWS V14.00,2013-01-25 20:57:00,
2013-01-25 16:02:00,36.9,29.4,30.28,NNE,25,1.0,5.0,74,0.00,,---,0.00,VWS V14.00,2013-01-25 21:02:00,
2013-01-25 16:07:00,36.9,29.7,30.27,ENE,63,3.0,8.0,75,0.00,,---,0.00,VWS V14.00,2013-01-25 21:07:00,
2013-01-25 16:12:00,36.8,29.6,30.28,NNE,22,1.0,8.0,75,0.00,,---,0.00,VWS V14.00,2013-01-25 21:12:00,
2013-01-25 16:17:00,36.8,29.6,30.27,ENE,57,2.0,9.0,75,0.00,,---,0.00,VWS V14.00,2013-01-25 21:17:00,
2013-01-25 16:22:00,36.7,29.5,30.27,NE,44,6.0,9.0,75,0.00,,---,0.00,VWS V14.00,2013-01-25 21:22:00,
2013-01-25 16:27:00,36.7,29.9,30.27,NNE,26,7.0,9.0,76,0.00,,---,0.00,VWS V14.00,2013-01-25 21:27:00,
2013-01-25 16:32:00,36.6,30.1,30.28,NNE,16,10.0,11.0,77,0.00,,---,0.00,VWS V14.00,2013-01-25 21:32:00,
2013-01-25 16:37:00,36.4,30.2,30.28,North,6,8.0,12.0,78,0.00,,---,0.00,VWS V14.00,2013-01-25 21:37:00,
2013-01-25 16:42:00,36.3,30.1,30.27,NNE,27,8.0,12.0,78,0.00,,---,0.00,VWS V14.00,2013-01-25 21:42:00,
2013-01-25 16:47:00,36.2,30.3,30.27,NNE,16,5.0,12.0,79,0.00,,---,0.00,VWS V14.00,2013-01-25 21:47:00,
2013-01-25 16:52:00,36.1,30.2,30.26,NNE,25,10.0,12.0,79,0.00,,---,0.00,VWS V14.00,2013-01-25 21:52:00,
2013-01-25 16:57:00,36.0,30.4,30.25,NNE,29,8.0,12.0,80,0.00,,---,0.00,VWS V14.00,2013-01-25 21:57:00,
2013-01-25 17:02:00,35.8,30.9,30.25,NE,44,6.0,11.0,82,0.00,,---,0.00,VWS V14.00,2013-01-25 22:02:00,
2013-01-25 17:07:00,35.6,31.2,30.25,North,11,8.0,12.0,84,0.00,,---,0.01,VWS V14.00,2013-01-25 22:07:00,
2013-01-25 17:12:00,35.4,31.4,30.25,NNE,23,6.0,12.0,85,0.01,,---,0.01,VWS V14.00,2013-01-25 22:12:00,
2013-01-25 17:17:00,35.2,31.7,30.25,NE,40,7.0,12.0,87,0.02,,---,0.02,VWS V14.00,2013-01-25 22:17:00,
2013-01-25 17:22:00,35.0,31.8,30.24,NNE,33,7.0,12.0,88,0.03,,---,0.03,VWS V14.00,2013-01-25 22:22:00,
2013-01-25 17:27:00,34.8,31.9,30.24,NE,42,6.0,12.0,89,0.03,,---,0.04,VWS V14.00,2013-01-25 22:27:00,
2013-01-25 17:32:00,34.7,32.1,30.23,NNE,24,7.0,11.0,90,0.03,,---,0.04,VWS V14.00,2013-01-25 22:32:00,
2013-01-25 17:37:00,34.6,32.5,30.23,NNE,32,9.0,11.0,92,0.04,,---,0.05,VWS V14.00,2013-01-25 22:37:00,
2013-01-25 17:42:00,34.5,32.7,30.24,NNE,23,8.0,11.0,93,0.03,,---,0.05,VWS V14.00,2013-01-25 22:42:00,
2013-01-25 17:47:00,34.5,33.0,30.23,NE,35,9.0,12.0,94,0.03,,---,0.05,VWS V14.00,2013-01-25 22:47:00,
2013-01-25 17:52:00,34.4,32.9,30.23,NNE,28,5.0,12.0,94,0.04,,---,0.06,VWS V14.00,2013-01-25 22:52:00,
2013-01-25 17:57:00,34.4,33.1,30.23,NNE,31,4.0,12.0,95,0.04,,---,0.06,VWS V14.00,2013-01-25 22:57:00,
2013-01-25 18:02:00,34.4,33.4,30.22,NE,50,4.0,9.0,96,0.03,,---,0.06,VWS V14.00,2013-01-25 23:02:00,
2013-01-25 18:07:00,34.4,33.4,30.22,NE,35,7.0,9.0,96,0.04,,---,0.07,VWS V14.00,2013-01-25 23:07:00,
2013-01-25 18:12:00,34.5,33.7,30.21,NE,39,7.0,9.0,97,0.04,,---,0.07,VWS V14.00,2013-01-25 23:12:00,
2013-01-25 18:17:00,34.5,33.7,30.21,NE,40,6.0,9.0,97,0.03,,---,0.07,VWS V14.00,2013-01-25 23:17:00,
2013-01-25 18:22:00,34.6,34.1,30.20,NE,36,7.0,9.0,98,0.03,,---,0.07,VWS V14.00,2013-01-25 23:22:00,
2013-01-25 18:27:00,34.7,34.2,30.20,NE,35,5.0,9.0,98,0.04,,---,0.08,VWS V14.00,2013-01-25 23:27:00,
2013-01-25 18:32:00,34.7,34.2,30.20,NE,42,0.0,7.0,98,0.04,,---,0.08,VWS V14.00,2013-01-25 23:32:00,
2013-01-25 18:37:00,34.7,34.2,30.21,North,8,7.0,8.0,98,0.03,,---,0.08,VWS V14.00,2013-01-25 23:37:00,
2013-01-25 18:42:00,34.8,34.5,30.21,North,0,6.0,8.0,99,0.03,,---,0.08,VWS V14.00,2013-01-25 23:42:00,
2013-01-25 18:47:00,34.9,34.7,30.20,North,0,0.0,8.0,99,0.04,,---,0.09,VWS V14.00,2013-01-25 23:47:00,
2013-01-25 18:52:00,34.9,34.9,30.19,NE,34,1.0,8.0,100,0.03,,---,0.09,VWS V14.00,2013-01-25 23:52:00,
2013-01-25 18:57:00,34.9,34.9,30.20,NE,34,3.0,8.0,100,0.03,,---,0.09,VWS V14.00,2013-01-25 23:57:00,
2013-01-25 19:02:00,34.9,34.7,30.19,NE,34,0.0,0.0,99,0.03,,---,0.09,VWS V14.00,2013-01-26 00:02:00,
2013-01-25 19:07:00,35.0,35.0,30.19,NE,34,0.0,0.0,100,0.03,,---,0.09,VWS V14.00,2013-01-26 00:07:00,
2013-01-25 19:12:00,35.1,35.1,30.19,NE,34,0.0,0.0,100,0.02,,---,0.09,VWS V14.00,2013-01-26 00:12:00,
2013-01-25 19:17:00,35.1,35.1,30.19,North,349,7.0,8.0,100,0.02,,---,0.09,VWS V14.00,2013-01-26 00:17:00,
2013-01-25 19:22:00,35.2,35.2,30.19,NNW,332,5.0,8.0,100,0.02,,---,0.09,VWS V14.00,2013-01-26 00:22:00,
2013-01-25 19:27:00,35.3,35.3,30.19,NNW,340,4.0,8.0,100,0.03,,---,0.10,VWS V14.00,2013-01-26 00:27:00,
2013-01-25 19:32:00,35.4,35.4,30.19,North,349,5.0,9.0,100,0.03,,---,0.10,VWS V14.00,2013-01-26 00:32:00,
2013-01-25 19:37:00,35.4,35.4,30.21,NNW,331,11.0,13.0,100,0.02,,---,0.10,VWS V14.00,2013-01-26 00:37:00,
2013-01-25 19:42:00,35.3,35.3,30.22,NNW,335,15.0,17.0,100,0.02,,---,0.10,VWS V14.00,2013-01-26 00:42:00,
2013-01-25 19:47:00,35.3,35.3,30.21,NW,321,10.0,17.0,100,0.02,,---,0.10,VWS V14.00,2013-01-26 00:47:00,
2013-01-25 19:52:00,35.3,35.3,30.21,NNW,329,11.0,17.0,100,0.02,,---,0.10,VWS V14.00,2013-01-26 00:52:00,
2013-01-25 19:57:00,35.2,35.2,30.20,NNW,332,9.0,17.0,100,0.03,,---,0.11,VWS V14.00,2013-01-26 00:57:00,
2013-01-25 20:02:00,35.1,35.1,30.20,NNW,338,9.0,10.0,100,0.02,,---,0.11,VWS V14.00,2013-01-26 01:02:00,
2013-01-25 20:07:00,35.1,35.1,30.20,NNW,330,8.0,12.0,100,0.02,,---,0.11,VWS V14.00,2013-01-26 01:07:00,
2013-01-25 20:12:00,35.1,35.1,30.20,NW,320,9.0,12.0,100,0.02,,---,0.11,VWS V14.00,2013-01-26 01:12:00,
2013-01-25 20:17:00,35.1,35.1,30.20,NW,314,7.0,12.0,100,0.02,,---,0.11,VWS V14.00,2013-01-26 01:17:00,
2013-01-25 20:22:00,35.1,35.1,30.20,NNW,337,9.0,12.0,100,0.03,,---,0.12,VWS V14.00,2013-01-26 01:22:00,
2013-01-25 20:27:00,35.1,35.1,30.19,NNW,330,9.0,12.0,100,0.03,,---,0.12,VWS V14.00,2013-01-26 01:27:00,
2013-01-25 20:32:00,35.1,35.1,30.20,NNW,330,9.0,11.0,100,0.02,,---,0.12,VWS V14.00,2013-01-26 01:32:00,
2013-01-25 20:37:00,35.1,35.1,30.19,NW,323,9.0,11.0,100,0.03,,---,0.13,VWS V14.00,2013-01-26 01:37:00,
2013-01-25 20:42:00,35.1,35.1,30.19,NW,317,9.0,11.0,100,0.03,,---,0.13,VWS V14.00,2013-01-26 01:42:00,
2013-01-25 20:47:00,35.0,35.0,30.19,NNW,328,10.0,12.0,100,0.03,,---,0.13,VWS V14.00,2013-01-26 01:47:00,
2013-01-25 20:52:00,35.0,35.0,30.19,NW,322,12.0,14.0,100,0.02,,---,0.13,VWS V14.00,2013-01-26 01:52:00,
2013-01-25 20:57:00,35.0,35.0,30.19,NNW,330,12.0,14.0,100,0.02,,---,0.13,VWS V14.00,2013-01-26 01:57:00,
2013-01-25 21:02:00,35.0,35.0,30.21,NNW,329,11.0,14.0,100,0.02,,---,0.13,VWS V14.00,2013-01-26 02:02:00,
2013-01-25 21:07:00,35.0,35.0,30.21,NNW,334,13.0,15.0,100,0.02,,---,0.13,VWS V14.00,2013-01-26 02:07:00,
2013-01-25 21:12:00,34.9,34.9,30.21,NNW,335,11.0,17.0,100,0.02,,---,0.13,VWS V14.00,2013-01-26 02:12:00,
2013-01-25 21:17:00,34.9,34.9,30.21,NNW,345,10.0,17.0,100,0.02,,---,0.13,VWS V14.00,2013-01-26 02:17:00,
2013-01-25 21:22:00,34.9,34.9,30.21,NNW,334,10.0,17.0,100,0.01,,---,0.13,VWS V14.00,2013-01-26 02:22:00,
2013-01-25 21:27:00,34.9,34.9,30.21,NNW,335,9.0,17.0,100,0.01,,---,0.13,VWS V14.00,2013-01-26 02:27:00,
2013-01-25 21:32:00,34.9,34.9,30.22,NW,325,9.0,13.0,100,0.01,,---,0.13,VWS V14.00,2013-01-26 02:32:00,
2013-01-25 21:37:00,34.9,34.9,30.22,NNW,334,8.0,13.0,100,0.01,,---,0.13,VWS V14.00,2013-01-26 02:37:00,
2013-01-25 21:42:00,34.9,34.9,30.23,NNW,340,8.0,14.0,100,0.01,,---,0.13,VWS V14.00,2013-01-26 02:42:00,
2013-01-25 21:47:00,34.9,34.9,30.23,NNW,335,7.0,14.0,100,0.01,,---,0.13,VWS V14.00,2013-01-26 02:47:00,
2013-01-25 21:52:00,34.9,34.9,30.23,NNW,329,12.0,14.0,100,0.01,,---,0.13,VWS V14.00,2013-01-26 02:52:00,
2013-01-25 21:57:00,34.9,34.9,30.23,NNW,338,10.0,15.0,100,0.01,,---,0.13,VWS V14.00,2013-01-26 02:57:00,
2013-01-25 22:02:00,34.8,34.8,30.22,NW,325,13.0,13.0,100,0.01,,---,0.13,VWS V14.00,2013-01-26 03:02:00,
2013-01-25 22:07:00,34.8,34.8,30.22,NNW,334,11.0,13.0,100,0.01,,---,0.13,VWS V14.00,2013-01-26 03:07:00,
2013-01-25 22:12:00,34.7,34.7,30.22,NNW,342,9.0,13.0,100,0.01,,---,0.13,VWS V14.00,2013-01-26 03:12:00,
2013-01-25 22:17:00,34.7,34.7,30.22,NNW,342,9.0,13.0,100,0.01,,---,0.13,VWS V14.00,2013-01-26 03:17:00,
2013-01-25 22:22:00,34.7,34.7,30.22,NW,325,5.0,13.0,100,0.01,,---,0.13,VWS V14.00,2013-01-26 03:22:00,
2013-01-25 22:27:00,34.7,34.7,30.22,NW,323,8.0,13.0,100,0.00,,---,0.13,VWS V14.00,2013-01-26 03:27:00,
2013-01-25 22:32:00,34.6,34.6,30.23,NNW,334,7.0,9.0,100,0.00,,---,0.13,VWS V14.00,2013-01-26 03:32:00,
2013-01-25 22:37:00,34.6,34.6,30.22,NW,322,5.0,10.0,100,0.00,,---,0.13,VWS V14.00,2013-01-26 03:37:00,
2013-01-25 22:42:00,34.6,34.6,30.22,NW,321,4.0,10.0,100,0.00,,---,0.13,VWS V14.00,2013-01-26 03:42:00,
2013-01-25 22:47:00,34.6,34.6,30.22,WNW,301,6.0,10.0,100,0.00,,---,0.13,VWS V14.00,2013-01-26 03:47:00,
2013-01-25 22:52:00,34.7,34.7,30.23,WNW,301,9.0,10.0,100,0.00,,---,0.13,VWS V14.00,2013-01-26 03:52:00,
2013-01-25 22:57:00,34.7,34.7,30.22,WNW,302,7.0,10.0,100,0.00,,---,0.13,VWS V14.00,2013-01-26 03:57:00,
2013-01-25 23:02:00,34.8,34.8,30.22,NW,306,6.0,6.0,100,0.00,,---,0.13,VWS V14.00,2013-01-26 04:02:00,
2013-01-25 23:07:00,34.8,34.8,30.22,WNW,285,10.0,10.0,100,0.00,,---,0.13,VWS V14.00,2013-01-26 04:07:00,
2013-01-25 23:12:00,34.9,34.9,30.23,WNW,300,8.0,11.0,100,0.00,,---,0.13,VWS V14.00,2013-01-26 04:12:00,
2013-01-25 23:17:00,34.9,34.9,30.23,WNW,300,7.0,11.0,100,0.00,,---,0.13,VWS V14.00,2013-01-26 04:17:00,
2013-01-25 23:22:00,34.9,34.9,30.22,WNW,302,9.0,11.0,100,0.00,,---,0.13,VWS V14.00,2013-01-26 04:22:00,
2013-01-25 23:27:00,35.0,35.0,30.23,WNW,287,9.0,11.0,100,0.00,,---,0.13,VWS V14.00,2013-01-26 04:27:00,
2013-01-25 23:32:00,35.0,35.0,30.23,WNW,303,8.0,10.0,100,0.00,,---,0.13,VWS V14.00,2013-01-26 04:32:00,
2013-01-25 23:37:00,35.1,35.1,30.23,WNW,298,6.0,10.0,100,0.00,,---,0.13,VWS V14.00,2013-01-26 04:37:00,
2013-01-25 23:42:00,35.1,35.1,30.23,WNW,300,7.0,10.0,100,0.00,,---,0.13,VWS V14.00,2013-01-26 04:42:00,
2013-01-25 23:47:00,35.1,35.1,30.23,WNW,294,5.0,11.0,100,0.00,,---,0.13,VWS V14.00,2013-01-26 04:47:00,
2013-01-25 23:52:00,35.1,35.1,30.23,NW,308,7.0,11.0,100,0.00,,---,0.13,VWS V14.00,2013-01-26 04:52:00,
2013-01-25 23:57:00,35.1,35.1,30.23,WNW,303,6.0,11.0,100,0.00,,---,0.13,VWS V14.00,2013-01-26 04:57:00,